[[{"header":{"parameterUnit":"m.s-1","parameterCategory":1,"la1":30.2991,"la2":30.254,"lo1":-89.0895,"lo2":-89.0444,"dy":0.0017,"dx":0.0017,"nx":28,"ny":28,"refTime":"2023-09-07T21:00:00:Z","depth":0,"parameterNumber":2,"parameterNumberName":"U-component_of_WINDS"},"data":[0,0,0,0,0,0,0,0,0,0,0,0,0,0,0,0,0,0,0,0,0,0,0,0,0,0,0,0,0,0,0,0,0,0,0,0,0,0,0,0,0,0,0,0,0,0,0,0,0,0,0,0,0,0,0,0,0,0,-1.3821,-1.3821,0,-1.3808,-1.3808,-1.3808,-1.3752,-1.375,-1.3749,-1.3748,-1.3736,-1.3737,-1.3738,0,0,0,0,0,0,0,0,0,0,0,0,0,-1.3796,-1.3797,-1.3821,-1.3821,-1.382,-1.3808,-1.3808,-1.3808,-1.3752,-1.375,-1.3749,-1.3747,-1.3736,-1.3737,-1.3738,0,0,0,0,0,0,0,0,0,0,0,0,0,-1.3798,-1.3797,-1.3821,-1.3791,-1.3788,-1.3809,-1.3808,-1.3808,-1.3752,-1.375,-1.3748,-1.3746,-1.3736,-1.3737,-1.3738,-1.3787,0,0,-1.3743,-1.3743,0,0,0,0,0,0,0,0,-1.3798,-1.3799,-1.3795,-1.3793,-1.379,-1.378,-1.3795,-1.3801,-1.3753,-1.3766,-1.3748,-1.3745,-1.3752,-1.3752,-1.3754,-1.3786,-1.3786,-1.3743,-1.3744,-1.3744,-1.3745,0,0,0,0,0,0,0,-1.3798,-1.3799,-1.3816,-1.3795,-1.3792,-1.3778,-1.3776,-1.3796,-1.3771,-1.3765,-1.376,-1.376,-1.3751,-1.3753,-1.3754,-1.3786,-1.3743,-1.3744,-1.3745,-1.3745,-1.3857,-1.386,0,0,0,0,0,0,-1.3802,-1.3799,-1.3816,-1.3815,-1.3789,-1.378,-1.3778,-1.3785,-1.377,-1.3766,-1.3761,-1.3757,-1.3752,-1.3752,-1.3753,-1.381,-1.3744,-1.3746,-1.3746,-1.3855,-1.3858,-1.386,0,0,0,0,0,0,-1.3801,-1.3804,-1.3817,-1.3806,-1.3807,-1.3783,-1.3791,-1.3786,-1.3788,-1.3768,-1.3763,-1.3769,-1.375,-1.3751,-1.3779,-1.3808,-1.3746,-1.3748,-1.3853,-1.3856,-1.3859,-1.3923,0,0,0,0,0,0,-1.3801,-1.3804,-1.3822,-1.3807,-1.3808,-1.3843,-1.3793,-1.3787,-1.3791,-1.3785,-1.3773,-1.377,-1.3749,-1.3777,-1.378,-1.3809,-1.3749,-1.385,-1.3854,-1.3858,-1.3918,-1.3928,-1.3936,0,0,0,0,0,-1.38,-1.3841,-1.3823,-1.3826,-1.383,-1.3845,-1.3845,-1.382,-1.3793,-1.3812,-1.3798,-1.377,-1.3804,-1.3781,-1.3784,-1.3813,-1.3848,-1.3853,-1.3858,-1.3914,-1.3926,-1.3936,0,0,0,0,0,0,-1.386,-1.3838,-1.3819,-1.3855,-1.3852,-1.3835,-1.3857,-1.3833,-1.3838,-1.3832,-1.3801,-1.3799,-1.3832,-1.3825,-1.3799,-1.386,-1.3822,-1.3827,-1.3863,-1.3874,-1.3883,-1.3885,-1.375,0,0,0,0,0,-1.3878,-1.3891,-1.3871,-1.3906,-1.3905,-1.3882,-1.3887,-1.3868,-1.3864,-1.3862,-1.3851,-1.3848,-1.3858,-1.3866,-1.3874,-1.3916,-1.3914,-1.3938,-1.3947,-1.3955,-1.3961,-1.3983,-1.3995,-1.3876,-1.3876,-1.3876,0,0,-1.3914,-1.3904,-1.3914,-1.3918,-1.3913,-1.3928,-1.3881,-1.3899,-1.391,-1.3865,-1.3891,-1.3882,-1.3877,-1.3913,-1.3928,-1.3908,-1.3993,-1.3961,-1.3967,-1.3969,-1.399,-1.4001,-1.4011,-1.3879,-1.3879,-1.3878,0,0,-1.3988,-1.3982,-1.401,-1.4006,-1.3999,-1.3983,-1.399,-1.3976,-1.3969,-1.3994,-1.3961,-1.3973,-1.3991,-1.3989,-1.3991,-1.4064,-1.4038,-1.4067,-1.4115,-1.4138,-1.4147,-1.4155,-1.4183,-1.4193,-1.4073,-1.4073,-1.4073,0,-1.4035,-1.4056,-1.4027,-1.4048,-1.405,-1.4009,-1.4038,-1.4036,-1.4032,-1.4035,-1.4013,-1.4035,-1.4028,-1.4063,-1.4081,-1.4083,-1.4091,-1.4069,-1.4148,-1.4156,-1.4163,-1.4189,-1.4199,-1.4076,-1.4076,-1.4076,-1.4075,0,-1.4114,-1.4129,-1.4153,-1.415,-1.4155,-1.418,-1.4155,-1.4164,-1.4144,-1.413,-1.4157,-1.4147,-1.4153,-1.416,-1.4141,-1.4192,-1.418,-1.4154,-1.4115,-1.4179,-1.4202,-1.4212,-1.4082,-1.408,-1.4079,-1.4078,0,0,-1.4227,-1.4208,-1.4217,-1.4216,-1.4205,-1.4217,-1.4239,-1.4244,-1.4253,-1.4252,-1.427,-1.4286,-1.4261,-1.4263,-1.4243,-1.4263,-1.4323,-1.4233,-1.4233,-1.4252,-1.438,-1.4401,-1.4413,-1.4305,-1.4307,-1.4308,-1.4381,0,-1.4299,-1.4336,-1.4311,-1.4353,-1.4367,-1.4328,-1.4348,-1.4344,-1.4331,-1.4342,-1.4328,-1.4341,-1.4306,-1.4307,-1.4325,-1.4312,-1.4348,-1.4306,-1.4323,-1.4324,-1.4327,-1.4425,-1.4448,-1.4517,-1.439,-1.4391,-1.4392,0,-1.4388,-1.4391,-1.4434,-1.4421,-1.4426,-1.4444,-1.4447,-1.4457,-1.4452,-1.4442,-1.4443,-1.4418,-1.444,-1.4401,-1.4431,-1.4402,-1.4408,-1.4402,-1.4404,-1.4406,-1.4363,-1.4431,-1.4539,-1.455,-1.4406,-1.4405,-1.4404,0,-1.4468,-1.4482,-1.451,-1.451,-1.4495,-1.4509,-1.4503,-1.4495,-1.45,-1.4503,-1.4506,-1.4511,-1.4514,-1.4519,-1.4496,-1.4469,-1.4529,-1.4488,-1.4523,-1.4523,-1.4538,-1.4538,-1.465,-1.4539,-1.4539,-1.4539,-1.4539,0,-1.4552,-1.4581,-1.4546,-1.4563,-1.4594,-1.4564,-1.4596,-1.4586,-1.4579,-1.4594,-1.456,-1.4575,-1.4544,-1.4556,-1.4538,-1.4566,-1.4567,-1.456,-1.4555,-1.4564,-1.4565,-1.4568,-1.4564,-1.4542,-1.4541,-1.4541,-1.454,0,-1.4647,-1.4625,-1.4653,-1.4636,-1.4632,-1.4656,-1.4642,-1.4657,-1.4642,-1.4662,-1.4665,-1.4642,-1.4654,-1.4631,-1.4641,-1.4629,-1.4669,-1.4655,-1.4671,-1.4667,-1.4704,-1.4701,-1.4822,-1.4837,-1.4716,-1.4718,-1.4718,0,-1.4703,-1.4724,-1.4709,-1.4717,-1.4713,-1.4725,-1.473,-1.4701,-1.4708,-1.4703,-1.472,-1.4729,-1.4735,-1.4756,-1.4741,-1.4748,-1.4735,-1.4777,-1.4736,-1.4745,-1.4738,-1.4738,-1.474,-1.4786,-1.4788,-1.4789,-1.479,0,-1.4805,-1.4793,-1.4801,-1.4805,-1.4812,-1.4814,-1.4813,-1.4821,-1.4791,-1.48,-1.4812,-1.4816,-1.4826,-1.4836,-1.4839,-1.4833,-1.4808,-1.4803,-1.4811,-1.4822,-1.483,-1.4827,-1.4695,-1.4801,-1.48,-1.4799,-1.4798,-1.4798,-1.4883,-1.49,-1.4893,-1.4903,-1.4899,-1.49,-1.4914,-1.49,-1.4909,-1.4915,-1.4897,-1.4913,-1.4907,-1.4909,-1.4906,-1.4919,-1.49,-1.4912,-1.4916,-1.4919,-1.4926,-1.4827,-1.4919,-1.4919,-1.4918,-1.4918,-1.4918,0,-1.4985,-1.4978,-1.4987,-1.4987,-1.4996,-1.4969,-1.4967,-1.4976,-1.499,-1.4987,-1.4993,-1.5007,-1.5017,-1.5002,-1.5009,-1.5022,-1.501,-1.5025,-1.5024,-1.5024,-1.4941,-1.4934,-1.5034,-1.5034,-1.5034,-1.5034,-1.5034,-1.5034,-1.5039,-1.5066,-1.5053,-1.5079,-1.5071,-1.5087,-1.5088,-1.5089,-1.5086,-1.5103,-1.511,-1.51,-1.5092,-1.5098,-1.5106,-1.5101,-1.5106,-1.5125,-1.5117,-1.5041,-1.5029,-1.5019,-1.5011,-1.5126,-1.5126,-1.5198,-1.5199,-1.5199]},{"header":{"parameterUnit":"m.s-1","parameterCategory":1,"la1":30.2991,"la2":30.254,"lo1":-89.0895,"lo2":-89.0444,"dy":0.0017,"dx":0.0017,"nx":28,"ny":28,"refTime":"2023-09-07T21:00:00:Z","depth":0,"parameterNumber":3,"parameterNumberName":"V-component_of_WINDS"},"data":[0,0,0,0,0,0,0,0,0,0,0,0,0,0,0,0,0,0,0,0,0,0,0,0,0,0,0,0,0,0,0,0,0,0,0,0,0,0,0,0,0,0,0,0,0,0,0,0,0,0,0,0,0,0,0,0,0,0,-2.3482,-2.3481,0,-2.3466,-2.3466,-2.3466,-2.3413,-2.3412,-2.3411,-2.341,-2.3395,-2.3396,-2.3396,0,0,0,0,0,0,0,0,0,0,0,0,0,-2.3467,-2.3467,-2.3482,-2.3481,-2.3481,-2.3466,-2.3466,-2.3466,-2.3414,-2.3412,-2.3411,-2.3409,-2.3395,-2.3396,-2.3396,0,0,0,0,0,0,0,0,0,0,0,0,0,-2.3465,-2.3468,-2.3482,-2.3453,-2.3451,-2.3466,-2.3466,-2.3466,-2.3414,-2.3412,-2.341,-2.3409,-2.3394,-2.3395,-2.3397,-2.3439,0,0,-2.34,-2.34,0,0,0,0,0,0,0,0,-2.3465,-2.3465,-2.3458,-2.3455,-2.3452,-2.344,-2.3455,-2.3457,-2.3414,-2.3428,-2.341,-2.3408,-2.3411,-2.3411,-2.3412,-2.3438,-2.3437,-2.34,-2.34,-2.3401,-2.3401,0,0,0,0,0,0,0,-2.3465,-2.3466,-2.3476,-2.3458,-2.3454,-2.3442,-2.3439,-2.3455,-2.343,-2.3427,-2.3423,-2.3422,-2.341,-2.3411,-2.3411,-2.3437,-2.34,-2.3401,-2.3401,-2.3402,-2.3498,-2.3499,0,0,0,0,0,0,-2.3469,-2.3466,-2.3476,-2.3475,-2.3454,-2.3443,-2.3441,-2.3446,-2.3429,-2.3425,-2.3423,-2.3419,-2.341,-2.341,-2.3411,-2.3459,-2.3401,-2.3402,-2.3403,-2.3496,-2.3498,-2.35,0,0,0,0,0,0,-2.3469,-2.347,-2.3477,-2.347,-2.3469,-2.3446,-2.3451,-2.3446,-2.3448,-2.3427,-2.3422,-2.3429,-2.3409,-2.3409,-2.3432,-2.3458,-2.3402,-2.3403,-2.3493,-2.3496,-2.3499,-2.3557,0,0,0,0,0,0,-2.3469,-2.3471,-2.3486,-2.347,-2.347,-2.3498,-2.3453,-2.3447,-2.345,-2.3444,-2.3431,-2.3428,-2.3407,-2.3431,-2.3433,-2.3459,-2.3404,-2.3491,-2.3495,-2.3498,-2.3553,-2.3562,-2.3569,0,0,0,0,0,-2.3468,-2.3503,-2.3487,-2.3489,-2.3489,-2.35,-2.35,-2.3476,-2.3452,-2.3468,-2.3454,-2.3428,-2.3455,-2.3434,-2.3436,-2.3462,-2.3489,-2.3494,-2.3498,-2.3549,-2.356,-2.3569,0,0,0,0,0,0,-2.3523,-2.3501,-2.3483,-2.3513,-2.3509,-2.3491,-2.351,-2.3488,-2.349,-2.3485,-2.3455,-2.3453,-2.3481,-2.3473,-2.345,-2.3502,-2.3468,-2.3473,-2.3506,-2.3516,-2.3524,-2.3526,-2.3405,0,0,0,0,0,-2.3539,-2.3549,-2.3529,-2.3558,-2.3557,-2.3534,-2.3538,-2.352,-2.3514,-2.3512,-2.35,-2.3496,-2.3504,-2.3509,-2.3515,-2.3551,-2.3548,-2.3571,-2.3579,-2.3586,-2.3591,-2.361,-2.362,-2.3514,-2.3514,-2.3514,0,0,-2.3571,-2.356,-2.3569,-2.3569,-2.3563,-2.3576,-2.3533,-2.3547,-2.3556,-2.3514,-2.3536,-2.3527,-2.352,-2.3551,-2.3563,-2.3546,-2.3619,-2.3591,-2.3597,-2.3598,-2.3616,-2.3626,-2.3635,-2.3517,-2.3517,-2.3516,0,0,-2.3637,-2.3629,-2.3653,-2.3648,-2.364,-2.3625,-2.3631,-2.3616,-2.3609,-2.363,-2.3599,-2.3609,-2.3622,-2.3619,-2.3619,-2.3684,-2.3661,-2.3687,-2.373,-2.375,-2.3758,-2.3765,-2.379,-2.3799,-2.3692,-2.3692,-2.3692,0,-2.3678,-2.3695,-2.3668,-2.3685,-2.3686,-2.3648,-2.3673,-2.367,-2.3664,-2.3666,-2.3646,-2.3663,-2.3655,-2.3685,-2.3701,-2.3702,-2.3708,-2.3689,-2.3759,-2.3766,-2.3772,-2.3795,-2.3804,-2.3695,-2.3695,-2.3694,-2.3694,0,-2.3747,-2.3759,-2.3779,-2.3775,-2.3779,-2.3799,-2.3776,-2.3783,-2.3764,-2.3751,-2.3773,-2.3763,-2.3767,-2.3772,-2.3754,-2.3799,-2.3789,-2.3764,-2.3729,-2.3786,-2.3807,-2.3816,-2.37,-2.3699,-2.3698,-2.3697,0,0,-2.3847,-2.3828,-2.3836,-2.3834,-2.3822,-2.3831,-2.385,-2.3854,-2.3861,-2.3858,-2.3874,-2.3886,-2.3864,-2.3864,-2.3845,-2.3862,-2.3916,-2.3836,-2.3835,-2.3852,-2.3966,-2.3986,-2.3996,-2.39,-2.3901,-2.3902,-2.3967,0,-2.391,-2.3941,-2.3918,-2.3953,-2.3965,-2.3929,-2.3946,-2.3941,-2.393,-2.3938,-2.3925,-2.3935,-2.3904,-2.3904,-2.3919,-2.3906,-2.3939,-2.3901,-2.3915,-2.3916,-2.3919,-2.4007,-2.4027,-2.4089,-2.3975,-2.3976,-2.3977,0,-2.3988,-2.3989,-2.4026,-2.4013,-2.4017,-2.4032,-2.4034,-2.4042,-2.4036,-2.4026,-2.4027,-2.4004,-2.4022,-2.3987,-2.4012,-2.3988,-2.3992,-2.3986,-2.3988,-2.3989,-2.3951,-2.4011,-2.4107,-2.4117,-2.399,-2.3989,-2.3988,0,-2.4059,-2.4069,-2.4093,-2.4092,-2.4077,-2.4089,-2.4084,-2.4076,-2.4079,-2.4081,-2.4083,-2.4086,-2.4089,-2.4092,-2.4071,-2.4047,-2.4099,-2.4062,-2.4093,-2.4093,-2.4106,-2.4106,-2.4205,-2.4107,-2.4107,-2.4107,-2.4107,0,-2.4132,-2.4157,-2.4125,-2.414,-2.4166,-2.4139,-2.4166,-2.4156,-2.415,-2.4162,-2.4131,-2.4144,-2.4115,-2.4125,-2.4108,-2.4132,-2.4133,-2.4126,-2.4122,-2.413,-2.4131,-2.4133,-2.4129,-2.4109,-2.4109,-2.4108,-2.4108,0,-2.4216,-2.4196,-2.4219,-2.4203,-2.42,-2.422,-2.4207,-2.422,-2.4206,-2.4222,-2.4225,-2.4203,-2.4213,-2.4192,-2.4199,-2.4188,-2.4223,-2.4211,-2.4225,-2.4222,-2.4254,-2.4252,-2.4359,-2.4373,-2.4265,-2.4266,-2.4267,0,-2.4265,-2.4283,-2.4269,-2.4275,-2.4271,-2.4282,-2.4285,-2.4259,-2.4264,-2.4259,-2.4273,-2.428,-2.4285,-2.4303,-2.4288,-2.4294,-2.4282,-2.432,-2.4283,-2.4291,-2.4284,-2.4284,-2.4286,-2.4328,-2.4329,-2.433,-2.4331,0,-2.4354,-2.4343,-2.435,-2.4353,-2.4358,-2.4359,-2.4358,-2.4365,-2.4337,-2.4345,-2.4355,-2.4358,-2.4365,-2.4374,-2.4376,-2.437,-2.4347,-2.4342,-2.435,-2.4359,-2.4367,-2.4364,-2.4247,-2.434,-2.4339,-2.4339,-2.4338,-2.4338,-2.4423,-2.4438,-2.443,-2.4438,-2.4435,-2.4435,-2.4447,-2.4435,-2.4442,-2.4446,-2.443,-2.4444,-2.4438,-2.4438,-2.4435,-2.4446,-2.4429,-2.444,-2.4443,-2.4446,-2.4452,-2.4364,-2.4446,-2.4446,-2.4445,-2.4445,-2.4445,0,-2.4512,-2.4505,-2.4513,-2.4513,-2.452,-2.4496,-2.4494,-2.4501,-2.4514,-2.451,-2.4515,-2.4527,-2.4535,-2.452,-2.4526,-2.4537,-2.4527,-2.454,-2.454,-2.4539,-2.4466,-2.4459,-2.4549,-2.4549,-2.4549,-2.4549,-2.4549,-2.4548,-2.4559,-2.4583,-2.4571,-2.4593,-2.4586,-2.4599,-2.46,-2.46,-2.4597,-2.4612,-2.4618,-2.4609,-2.4601,-2.4606,-2.4612,-2.4608,-2.4612,-2.4629,-2.4622,-2.4554,-2.4544,-2.4534,-2.4528,-2.463,-2.463,-2.4694,-2.4694,-2.4695]}]]